National Weather Service United States Department of Commerce

Latest Hourly Weather Roundup

TOPSWRTT 000
TTAA00 KICT 261012

Wichita AWIPS Roundup
National Weather Service Wichita KS
500 AM CDT MON JUN 26 2017

....Central Kansas....
  
CITY           SKY/WX    TMP DP  RH WIND       PRES   REMARKS
RUSSELL        CLOUDY    58  56  93 S6        30.21F                  
SALINA         CLOUDY    62  56  80 S8        30.21F                  
GREAT BEND     CLOUDY    59  57  93 CALM      30.24S                  
ELLSWORTH      LGT RAIN  59  57  94 SE6       30.21F                  
MCPHERSON      NOT AVBL                                               
HAYS           CLOUDY    59  57  93 CALM      30.24F                  

....South Central Kansas....
  
CITY           SKY/WX    TMP DP  RH WIND       PRES   REMARKS
HUTCHINSON     CLOUDY    58  54  86 CALM      30.23R                  
NEWTON         MOCLDY    59  55  87 E5        30.23S                  
KINGMAN        LGT RAIN  63  57  82 SE7       30.21F                  
WICHITA (ICT)  MOCLDY    62  54  74 NE5       30.21F                  
JABARA ARPT    CLOUDY    59  57  93 NE5       30.22S                  
MCCONNELL AFB  CLEAR     62  53  71 E6        30.22S                  
BENTON         MOCLDY    58  55  89 CALM      30.23S                  
EL DORADO      FAIR      61  57  88 E6        30.22F                  
AUGUSTA        FAIR      59  54  82 NE3       30.22F                  
HARPER         NOT AVBL                                               
WELLINGTON     CLEAR     59  55  88 E3        30.20S                  
WINFIELD       CLOUDY    65  53  65 SE8       30.21F                  
 
....Southeast Kansas....
  
CITY           SKY/WX    TMP DP  RH WIND       PRES   REMARKS
EUREKA         CLOUDY    63  59  88 W6        30.25R                  
IOLA           FAIR      60  58  94 CALM      30.23F                  
CHANUTE          N/A    N/A N/A N/A MISG      30.22F                  
PARSONS        CLOUDY    65  55  70 VRB3      30.22F                  
COFFEYVILLE    CLOUDY    66  57  72 E7        30.21F                  
INDEPENDENCE   CLOUDY    64  54  68 E6        30.21F                  
FORT SCOTT     MOCLDY    61  57  88 SE3       30.21F                  
PITTSBURG      CLOUDY    64  57  79 CALM      30.22F                  

....Western Kansas....
  
CITY           SKY/WX    TMP DP  RH WIND       PRES   REMARKS
GOODLAND       CLOUDY    57  57 100 S12       30.25F FOG              
HILL CITY      CLOUDY    58  57  97 W5        30.24F                  
LIBERAL        CLOUDY    60  59  96 E10       30.23F                  
GARDEN CITY    CLOUDY    57  55  93 E6        30.24F FOG              
DODGE CITY     CLOUDY    58  57  97 NE7       30.24F                  
PRATT          CLOUDY    58  52  78 SE5       30.23F                  
MEDICINE LODGE   N/A     62  53  72 E3        30.21F                  

....Northeast Kansas....
  
CITY           SKY/WX    TMP DP  RH WIND       PRES   REMARKS
CONCORDIA      CLEAR     55  54  96 W7        30.21F                  
TOPEKA         CLEAR     53  53 100 CALM      30.19F                  
MANHATTAN      CLEAR     54  53  97 W3        30.20F                  
LAWRENCE       FOG       49  48  97 E5        30.21F VSB 3/4          
OLATHE           N/A     52  52 100 CALM      30.22F                  
EMPORIA        CLOUDY    60  59  96 S6        30.22F                  

....Oklahoma....
  
CITY           SKY/WX    TMP DP  RH WIND       PRES   REMARKS
GAGE           CLOUDY    61  59  93 CALM      30.20F                  
PONCA CITY     CLOUDY    68  56  65 E8        30.19F                  
BARTLESVILLE   CLOUDY    65  56  72 N5        30.22S                  
TULSA          MOCLDY    69  61  75 CALM      30.18S                  
OKLAHOMA CITY  MOCLDY    67  55  65 CALM      30.19R                  

Note: "fair" indicates few or no clouds below 12,000 feet with no
significant weather and/or obstructions to visibility.